Location: Churchill Northern Studies Centre
(58.7378°N, 93.8201°W)
Time: 07:43:12
(UTC-05:00)

Vanguard 2 - Visible Passes

Search period start: 20 October 2017 00:00
Search period end: 30 October 2017 00:00
Orbit: 554 x 2939 km, 32.9° (Epoch: 19 October)

Date Brightness Start Highest point End Pass type
(mag) Time Alt. Az. Time Alt. Az. Time Alt. Az.
24 Oct 12.1 07:01:26 10° S 07:06:11 12° SSE 07:10:31 10° SE visible
25 Oct 12.0 07:15:59 10° S 07:23:36 15° SSE 07:30:14 10° SE visible
26 Oct 11.9 07:31:43 10° SSW 07:41:02 18° SSE 07:48:55 10° SE visible
27 Oct 12.0 05:44:50 10° SSE 05:50:14 12° SSE 05:55:19 10° SE visible
28 Oct 11.9 05:59:09 10° S 06:07:31 16° SSE 06:15:10 10° ESE visible
29 Oct 11.8 06:14:43 10° SSW 06:24:51 19° SSE 06:33:58 10° ESE visible
